This is the latest recevied weather packets stored in our database for station/object KC3QLX. If no packets are shown the sender has not sent any weather packets the latest 10 day(s).
| Time | Temp. | Humidity | Pressure | Rain* | Wind** | Luminosity | Snow |
|---|---|---|---|---|---|---|---|
| 1777462474 | 11.11° C | 77% | 1015.2 hPa | 0 mm | - | 15 W/m² | - |
| 1777462171 | 11.11° C | 80% | 1015.3 hPa | 0 mm | - | 15 W/m² | - |
| 1777461868 | 11.11° C | 77% | 1015.2 hPa | 0 mm | - | 14 W/m² | - |
| 1777461565 | 11.11° C | 77% | 1015.1 hPa | 0 mm | - | 14 W/m² | - |
| 1777461260 | 11.11° C | 77% | 1014.9 hPa | 0 mm | - | 12 W/m² | - |
| 1777460955 | 11.11° C | 76% | 1014.9 hPa | 0 mm | - | 11 W/m² | - |
| 1777460651 | 11.11° C | 77% | 1015 hPa | 0 mm | - | 11 W/m² | - |
| 1777460347 | 10.56° C | 77% | 1014.9 hPa | 0 mm | - | 9 W/m² | - |
| 1777460043 | 10.56° C | 78% | 1014.8 hPa | 0 mm | - | 7 W/m² | - |
| 1777459741 | 10.56° C | 76% | 1014.9 hPa | 0 mm | - | 5 W/m² | - |
| 1777459437 | 10.56° C | 78% | 1014.9 hPa | 0 mm | - | 3 W/m² | - |
| 1777459135 | 10.56° C | 77% | 1014.8 hPa | 0 mm | - | 2 W/m² | - |
| 1777458832 | 10.56° C | 77% | 1014.8 hPa | 0 mm | - | 1 W/m² | - |
| 1777458529 | 11.11° C | 76% | 1015 hPa | 0 mm | - | 0 W/m² | - |
| 1777458225 | 11.11° C | 76% | 1015.2 hPa | 0 mm | - | 0 W/m² | - |
| 1777457920 | 11.11° C | 75% | 1015.1 hPa | 0 mm | - | 0 W/m² | - |
| 1777457617 | 11.11° C | 74% | 1015.2 hPa | 0 mm | - | 0 W/m² | - |
| 1777457312 | 11.11° C | 76% | 1015.1 hPa | 0 mm | - | 0 W/m² | - |
| 1777457007 | 11.11° C | 76% | 1014.9 hPa | 0 mm | - | 0 W/m² | - |
| 1777456703 | 10.56° C | 76% | 1014.7 hPa | 0 mm | - | 0 W/m² | - |
| 1777456402 | 10.56° C | 77% | 1014.7 hPa | 0 mm | - | 0 W/m² | - |
| 1777456100 | 11.11° C | 77% | 1014.8 hPa | 0 mm | - | 0 W/m² | - |
| 1777455796 | 10.56° C | 76% | 1014.7 hPa | 0 mm | - | 0 W/m² | - |
| 1777455493 | 10.56° C | 78% | 1014.8 hPa | 0 mm | - | 0 W/m² | - |
| 1777455189 | 10.56° C | 79% | 1015 hPa | 0 mm | - | 0 W/m² | - |
* Rain latest hour (hover to see other rain measurements)
** Current wind speed in m/s (hover to see current wind gust speed)